Regional Weather Roundup
Issued by NWS

Home | Current Version | Previous Version | Text Only | Print | Product List | Glossary Off
Versions: 1 2 3 4 5 6 7 8 9 10 11 12 13 14 15 16 17 18 19 20 21 22 23 24 25 26

000
ASUS45 KCYS 170010
RWRWY

WYOMING REGIONAL WEATHER ROUNDUP
NATIONAL WEATHER SERVICE CHEYENNE WY
500 PM MST FRI FEB 16 2018

NOTE:  "FAIR" INDICATES FEW OR NO CLOUDS BELOW 12,000 FEET
WITH NO SIGNIFICANT WEATHER AND/OR OBSTRUCTIONS TO VISIBILITY.

WYZ001-170100-
YELLOWSTONE NATIONAL PARK

CITY           SKY/WX    TMP DP  RH WIND       PRES   REMARKS
LK YELLOWSTONE   N/A     15   9  76 VRB3      29.86F
6HR MIN TEMP:  13; 6HR MAX TEMP:  16; 6HR PCP:  0.04;

W YELLOWSTONE  NOT AVBL

$$
WYZ002>013-054>058-071-098>099-170100-
NORTHERN WYOMING

CITY           SKY/WX    TMP DP  RH WIND       PRES   REMARKS
JACKSON        LGT SNOW  21  16  79 S18G31    29.93F WCI   6
CODY           FAIR      33   7  33 W8G16     29.82F WCI  26
GREYBULL       MOCLDY    23  13  65 CALM      29.88F
6HR MIN TEMP:  11; 6HR MAX TEMP:  24;

WORLAND        FAIR      17  11  77 CALM      29.87F
6HR MIN TEMP:  10; 6HR MAX TEMP:  21; 6HR PCP:  0.07;

SHERIDAN       CLOUDY    27  14  58 CALM      29.81F
6HR MIN TEMP:  14; 6HR MAX TEMP:  30;

BUFFALO        MOCLDY    30  13  49 SE5       29.79F WCI  25
6HR MIN TEMP:  26; 6HR MAX TEMP:  34;

GILLETTE       MOCLDY    30  21  69 E3        29.80F
6HR MIN TEMP:  27; 6HR MAX TEMP:  36;

HULETT         CLOUDY    30  16  55 MISG      29.83F
NEWCASTLE      FAIR      27  18  69 CALM      29.84F

$$
WYZ014>020-022>026-101>103-170100-
CENTRAL WYOMING

CITY           SKY/WX    TMP DP  RH WIND       PRES   REMARKS
BIG PINEY      MOCLDY    26   8  46 NW6       29.97F WCI  19
6HR MIN TEMP:  21; 6HR MAX TEMP:  28;

PINEDALE       FLURRIES  19  14  79 CALM      29.98F
DUBOIS           N/A    N/A N/A N/A MISG        N/A
LANDER         FAIR      29  12  49 SE9       29.82F WCI  20
6HR MIN TEMP:  24; 6HR MAX TEMP:  32;

RIVERTON       FAIR      29  11  47 W17G26    29.83F WCI  17
6HR MIN TEMP:  19; 6HR MAX TEMP:  32;

CASPER         CLOUDY    35  12  38 SW24G32   29.80S WCI  23
6HR MIN TEMP:  30; 6HR MAX TEMP:  40;

DOUGLAS        FAIR      37  12  35 W15G24    29.81F WCI  28
6HR MIN TEMP:  33; 6HR MAX TEMP:  42;


$$
WYZ021-027>030-104>119-170100-
SOUTHERN WYOMING

CITY           SKY/WX    TMP DP  RH WIND       PRES   REMARKS
EVANSTON       CLOUDY    26  10  50 W18G30    30.06S WCI  13
6HR MIN TEMP:  24; 6HR MAX TEMP:  32;

FORT BRIDGER   CLOUDY    28  10  48 W23G36    30.06R WCI  13
ROCK SPRINGS   MIX PCPN  27  14  58 W23G35    29.99R WCI  12
6HR MIN TEMP:  26; 6HR MAX TEMP:  35; 6HR PCP: TRACE;

DIXON          CLOUDY    27  17  65 SW8       30.02F WCI  19
RAWLINS        FAIR      28   8  43 SW30G44   29.85F WCI  12
6HR MIN TEMP:  24; 6HR MAX TEMP:  32;

SARATOGA       CLOUDY    30  12  47 SW24G33   29.91F WCI  16
LARAMIE        FAIR      32   6  33 VRB3      29.85F
6HR MIN TEMP:  27; 6HR MAX TEMP:  34;

CHEYENNE       MOCLDY    38   2  22 W15       29.84F WCI  29
6HR MIN TEMP:  23; 6HR MAX TEMP:  43;

TORRINGTON     FAIR      41  10  28 NW7       29.83F
6HR MIN TEMP:  32; 6HR MAX TEMP:  46;

PINE BLUFFS    FAIR      37  18  44 MISG      29.86S

$$




USA.gov is the U.S. government's official web portal to all federal, state and local government web resources and services.